Find Starlink 34931

NORAD ID: 65398 Int'l Des: 2025-191 Owner: SPXS Country: US Constellation: starlink operational
LEOCIRCULARRETROGRADESSO

当前视图

正在加载3D地球...

About Starlink 34931

Starlink 34931 (NORAD 65398) is a starlink constellation satellite (v2 mini) launched Aug 30, 2025 by SPXS of US. It operates in LEO, CIRCULAR, RETROGRADE, SSO orbit with a mass of 575.00 kg.

即将过境

Passes for default location (London). Set your location on the main map for personalized predictions.

高度历史

Loading altitude history...

两行轨道根数

1 65398U 25191V 26263.37320663 .00020888 00000-0 64714-3 0 9999
2 65398 97.2859 129.4656 0002512 87.3188 272.8343 15.33463618 59622
Epoch: Sep 20, 2026 • Age: 16 hours

当前状态

高度 470.8 km
远地点 / 近地点 N/A
速度 7.64 km/s
星下点 43.31°N, 61.07°W
发射日期 Aug 30, 2025
运行时间 1 year
类型 internet

技术详情

分类 Payload
质量 575.00 kg
干质量 530.00 kg
长度 0.30 m
跨度 29.00 m
形状 ? Box + pan
制造商 SPXS
平台类型 Starlink V2MO
阶段状态 In Orbit
所有者/国家 SPXS/US

Most Searched